This is the latest recevied weather packets stored in our database for station/object 7M1JBF-11. If no packets are shown the sender has not sent any weather packets the latest 10 day(s).
| Time | Temp. | Humidity | Pressure | Rain* | Wind** | Luminosity | Snow |
|---|---|---|---|---|---|---|---|
| 1777602855 | 14.44° C | 100% | 1001.6 hPa | 34.54 mm | - | - | - |
| 1777602254 | 14.44° C | 100% | 1001.6 hPa | 34.54 mm | - | - | - |
| 1777601652 | 13.89° C | 100% | 1001.7 hPa | 34.29 mm | - | - | - |
| 1777601051 | 13.89° C | 100% | 1002.2 hPa | 34.04 mm | - | - | - |
| 1777600450 | 13.89° C | 100% | 1002.9 hPa | 34.04 mm | - | - | - |
| 1777599848 | 13.33° C | 100% | 1003 hPa | 33.53 mm | - | - | - |
| 1777599247 | 13.33° C | 100% | 1003.5 hPa | 33.02 mm | - | - | - |
| 1777598647 | 13.33° C | 100% | 1003.8 hPa | 32.77 mm | - | - | - |
| 1777598048 | 13.33° C | 100% | 1004.2 hPa | 32.77 mm | - | - | - |
| 1777597443 | 13.33° C | 100% | 1004.3 hPa | 32.51 mm | - | - | - |
| 1777596841 | 13.33° C | 100% | 1004.5 hPa | 32.26 mm | - | - | - |
| 1777596240 | 12.78° C | 100% | 1004.4 hPa | 30.99 mm | - | - | - |
| 1777595639 | 12.78° C | 100% | 1004.6 hPa | 28.45 mm | - | - | - |
| 1777595037 | 12.78° C | 100% | 1004.7 hPa | 26.42 mm | - | - | - |
| 1777594436 | 12.78° C | 100% | 1005.2 hPa | 24.64 mm | - | - | - |
| 1777593835 | 12.78° C | 100% | 1005.7 hPa | 22.61 mm | - | - | - |
| 1777593233 | 12.78° C | 100% | 1006 hPa | 21.08 mm | - | - | - |
| 1777592632 | 12.78° C | 100% | 1006.3 hPa | 19.81 mm | - | - | - |
| 1777592031 | 12.78° C | 100% | 1006.8 hPa | 18.29 mm | - | - | - |
| 1777591429 | 12.78° C | 100% | 1006.8 hPa | 17.53 mm | - | - | - |
| 1777590828 | 12.78° C | 100% | 1007.4 hPa | 16 mm | - | - | - |
| 1777590226 | 12.78° C | 100% | 1007.2 hPa | 15.24 mm | - | - | - |
| 1777589625 | 12.78° C | 100% | 1007.8 hPa | 14.22 mm | - | - | - |
| 1777589024 | 12.78° C | 100% | 1008.1 hPa | 13.46 mm | - | - | - |
| 1777588422 | 12.22° C | 100% | 1008.6 hPa | 12.95 mm | - | - | - |
* Rain since midnight (hover to see other rain measurements)
** Current wind speed in m/s (hover to see current wind gust speed)